This is the latest recevied weather packets stored in our database for station/object DG4DAZ-6. If no packets are shown the sender has not sent any weather packets the latest 10 day(s).
| Time | Temp. | Humidity | Pressure | Rain* | Wind** | Luminosity | Snow |
|---|---|---|---|---|---|---|---|
| 1777669884 | 15.56° C | 45% | 1022.1 hPa | 0 mm | - | 0 W/m² | - |
| 1777669283 | 15.56° C | 44% | 1022.1 hPa | 0 mm | - | 0 W/m² | - |
| 1777668683 | 16.11° C | 43% | 1022.2 hPa | 0 mm | - | 0 W/m² | - |
| 1777668084 | 16.11° C | 43% | 1022.1 hPa | 0 mm | - | 0 W/m² | - |
| 1777667482 | 16.11° C | 43% | 1022.3 hPa | 0 mm | - | 0 W/m² | - |
| 1777666882 | 16.11° C | 43% | 1022.3 hPa | 0 mm | - | 0 W/m² | - |
| 1777666284 | 16.11° C | 43% | 1022.2 hPa | 0 mm | - | 0 W/m² | - |
| 1777665683 | 16.11° C | 43% | 1022.3 hPa | 0 mm | - | 0 W/m² | - |
| 1777665083 | 16.67° C | 42% | 1022.2 hPa | 0 mm | - | 0 W/m² | - |
| 1777664483 | 16.67° C | 41% | 1022.4 hPa | 0 mm | - | 0 W/m² | - |
| 1777663882 | 16.67° C | 41% | 1022.4 hPa | 0 mm | - | 0 W/m² | - |
| 1777663284 | 16.67° C | 40% | 1022.4 hPa | 0 mm | - | 0 W/m² | - |
| 1777662683 | 17.22° C | 40% | 1022.4 hPa | 0 mm | - | 0 W/m² | - |
| 1777662083 | 17.22° C | 40% | 1022.4 hPa | 0 mm | - | 0 W/m² | - |
| 1777661482 | 17.78° C | 38% | 1022.4 hPa | 0 mm | - | 3 W/m² | - |
| 1777660884 | 17.78° C | 38% | 1022.4 hPa | 0 mm | - | 7 W/m² | - |
| 1777660284 | 18.33° C | 38% | 1022.4 hPa | 0 mm | - | 9 W/m² | - |
| 1777659683 | 18.33° C | 36% | 1022.3 hPa | 0 mm | - | 11 W/m² | - |
| 1777659083 | 18.33° C | 37% | 1022.3 hPa | 0 mm | - | 12 W/m² | - |
| 1777658484 | 18.89° C | 36% | 1022.2 hPa | 0 mm | - | 14 W/m² | - |
| 1777657883 | 18.89° C | 35% | 1022.2 hPa | 0 mm | - | 18 W/m² | - |
| 1777657283 | 19.44° C | 34% | 1022.2 hPa | 0 mm | - | 19 W/m² | - |
| 1777656684 | 19.44° C | 34% | 1022.1 hPa | 0 mm | - | 44 W/m² | - |
| 1777656082 | 19.44° C | 34% | 1022.1 hPa | 0 mm | - | 157 W/m² | - |
| 1777655484 | 19.44° C | 34% | 1022.1 hPa | 0 mm | - | 189 W/m² | - |
* Rain latest hour (hover to see other rain measurements)
** Current wind speed in m/s (hover to see current wind gust speed)